Time,TemperatureF,DewpointF,PressureIn,WindDirection,WindDirectionDegrees,WindSpeedMPH,WindSpeedGustMPH,Humidity,HourlyPrecipIn,Conditions,Clouds,dailyrainin,SolarRadiationWatts/m^2,SoftwareType,DateUTC
2013-02-11 00:01:00,38.0,29.0,-100.00,East,80,2.0,8.0,70,0.00,,,0.00,0.000000,,2013-02-11 08:01:00,
2013-02-11 00:11:00,40.0,29.0,-100.00,ENE,73,5.0,9.0,64,0.00,,,0.00,0.000000,,2013-02-11 08:11:00,
2013-02-11 00:42:00,40.0,29.0,-100.00,ENE,73,5.0,9.0,64,0.00,,,0.00,0.000000,,2013-02-11 08:42:00,
2013-02-11 00:52:00,40.0,29.0,-100.00,ENE,73,5.0,9.0,64,0.00,,,0.00,0.000000,,2013-02-11 08:52:00,
2013-02-11 01:01:00,40.0,29.0,-100.00,ENE,73,5.0,9.0,64,0.00,,,0.00,0.000000,,2013-02-11 09:01:00,
2013-02-11 01:11:00,37.0,28.0,-100.00,East,91,2.0,9.0,70,0.00,,,0.00,0.000000,,2013-02-11 09:11:00,
2013-02-11 01:32:00,37.0,28.0,-100.00,East,91,2.0,9.0,70,0.00,,,0.00,0.000000,,2013-02-11 09:32:00,
2013-02-11 01:42:00,37.0,28.0,-100.00,East,91,2.0,9.0,70,0.00,,,0.00,0.000000,,2013-02-11 09:42:00,
2013-02-11 01:52:00,37.0,28.0,-100.00,East,91,2.0,9.0,70,0.00,,,0.00,0.000000,,2013-02-11 09:52:00,
2013-02-11 02:01:00,37.0,28.0,-100.00,East,91,2.0,9.0,70,0.00,,,0.00,0.000000,,2013-02-11 10:01:00,
2013-02-11 02:11:00,40.0,29.0,-100.00,ENE,72,7.0,10.0,65,0.00,,,0.00,0.000000,,2013-02-11 10:11:00,
2013-02-11 02:42:00,40.0,29.0,-100.00,ENE,72,7.0,10.0,65,0.00,,,0.00,0.000000,,2013-02-11 10:42:00,
2013-02-11 02:52:00,40.0,29.0,-100.00,ENE,72,7.0,10.0,65,0.00,,,0.00,0.000000,,2013-02-11 10:52:00,
2013-02-11 03:01:00,40.0,29.0,-100.00,ENE,72,7.0,10.0,65,0.00,,,0.00,0.000000,,2013-02-11 11:01:00,
2013-02-11 03:11:00,38.0,28.0,-100.00,East,87,6.0,10.0,67,0.00,,,0.00,0.000000,,2013-02-11 11:11:00,
2013-02-11 03:42:00,38.0,28.0,-100.00,East,87,6.0,10.0,67,0.00,,,0.00,0.000000,,2013-02-11 11:42:00,
2013-02-11 03:52:00,38.0,28.0,-100.00,East,87,6.0,10.0,67,0.00,,,0.00,0.000000,,2013-02-11 11:52:00,
2013-02-11 04:02:00,38.0,28.0,-100.00,East,87,6.0,10.0,67,0.00,,,0.00,0.000000,,2013-02-11 12:02:00,
2013-02-11 04:11:00,39.0,29.0,-100.00,East,93,6.0,12.0,67,0.00,,,-99.99,0.000000,,2013-02-11 12:11:00,
2013-02-11 04:32:00,39.0,29.0,-100.00,East,93,6.0,12.0,67,0.00,,,-99.99,0.000000,,2013-02-11 12:32:00,
2013-02-11 04:42:00,39.0,29.0,-100.00,East,93,6.0,12.0,67,0.00,,,-99.99,0.000000,,2013-02-11 12:42:00,
2013-02-11 04:52:00,39.0,29.0,-100.00,East,93,6.0,12.0,67,0.00,,,-99.99,0.000000,,2013-02-11 12:52:00,
2013-02-11 05:01:00,39.0,29.0,-100.00,East,93,6.0,12.0,67,0.00,,,-99.99,0.000000,,2013-02-11 13:01:00,
2013-02-11 05:11:00,38.0,28.0,-100.00,ESE,106,6.0,11.0,66,0.00,,,-99.99,0.000000,,2013-02-11 13:11:00,
2013-02-11 05:42:00,38.0,28.0,-100.00,ESE,106,6.0,11.0,66,0.00,,,-99.99,0.000000,,2013-02-11 13:42:00,
2013-02-11 05:52:00,38.0,28.0,-100.00,ESE,106,6.0,11.0,66,0.00,,,-99.99,0.000000,,2013-02-11 13:52:00,
2013-02-11 06:01:00,38.0,28.0,-100.00,ESE,106,6.0,11.0,66,0.00,,,-99.99,0.000000,,2013-02-11 14:01:00,
2013-02-11 06:11:00,38.0,29.0,-100.00,East,95,6.0,11.0,70,0.00,,,-99.99,0.000000,,2013-02-11 14:11:00,
2013-02-11 06:42:00,38.0,29.0,-100.00,East,95,6.0,11.0,70,0.00,,,-99.99,0.000000,,2013-02-11 14:42:00,
2013-02-11 06:53:00,38.0,29.0,-100.00,East,95,6.0,11.0,70,0.00,,,-99.99,0.000000,,2013-02-11 14:53:00,
2013-02-11 07:01:00,38.0,29.0,-100.00,East,95,6.0,11.0,70,0.00,,,-99.99,0.000000,,2013-02-11 15:01:00,
2013-02-11 07:11:00,37.0,28.0,-100.00,ENE,74,6.0,10.0,70,0.00,,,0.00,2.000000,,2013-02-11 15:11:00,
2013-02-11 07:42:00,37.0,28.0,-100.00,ENE,74,6.0,10.0,70,0.00,,,0.00,2.000000,,2013-02-11 15:42:00,
2013-02-11 07:52:00,37.0,28.0,-100.00,ENE,74,6.0,10.0,70,0.00,,,0.00,2.000000,,2013-02-11 15:52:00,
2013-02-11 08:01:00,37.0,28.0,-100.00,ENE,74,6.0,10.0,70,0.00,,,0.00,2.000000,,2013-02-11 16:01:00,
2013-02-11 08:11:00,41.0,29.0,-100.00,East,90,5.0,9.0,63,0.00,,,0.00,79.000000,,2013-02-11 16:11:00,
2013-02-11 08:32:00,41.0,29.0,-100.00,East,90,5.0,9.0,63,0.00,,,0.00,79.000000,,2013-02-11 16:32:00,
2013-02-11 08:42:00,41.0,29.0,-100.00,East,90,5.0,9.0,63,0.00,,,0.00,79.000000,,2013-02-11 16:42:00,
2013-02-11 08:52:00,41.0,29.0,-100.00,East,90,5.0,9.0,63,0.00,,,0.00,79.000000,,2013-02-11 16:52:00,
2013-02-11 09:01:00,41.0,29.0,-100.00,East,90,5.0,9.0,63,0.00,,,0.00,79.000000,,2013-02-11 17:01:00,
2013-02-11 09:11:00,50.0,34.0,-100.00,ESE,122,2.0,9.0,54,0.00,,,0.00,275.000000,,2013-02-11 17:11:00,
2013-02-11 09:42:00,50.0,34.0,-100.00,ESE,122,2.0,9.0,54,0.00,,,0.00,275.000000,,2013-02-11 17:42:00,
2013-02-11 09:52:00,50.0,34.0,-100.00,ESE,122,2.0,9.0,54,0.00,,,0.00,275.000000,,2013-02-11 17:52:00,
2013-02-11 10:01:00,50.0,34.0,-100.00,ESE,122,2.0,9.0,54,0.00,,,0.00,275.000000,,2013-02-11 18:01:00,
2013-02-11 10:11:00,52.0,32.0,-100.00,WNW,297,5.0,8.0,47,0.00,,,0.00,436.000000,,2013-02-11 18:11:00,
2013-02-11 10:42:00,52.0,32.0,-100.00,WNW,297,5.0,8.0,47,0.00,,,0.00,436.000000,,2013-02-11 18:42:00,
2013-02-11 10:53:00,52.0,32.0,-100.00,WNW,297,5.0,8.0,47,0.00,,,0.00,436.000000,,2013-02-11 18:53:00,
2013-02-11 11:01:00,52.0,32.0,-100.00,WNW,297,5.0,8.0,47,0.00,,,0.00,436.000000,,2013-02-11 19:01:00,
2013-02-11 12:11:00,55.0,29.0,-100.00,WNW,302,10.0,15.0,37,-99.99,,,0.00,632.000000,,2013-02-11 20:11:00,
2013-02-11 12:42:00,55.0,29.0,-100.00,WNW,302,10.0,15.0,37,-99.99,,,0.00,632.000000,,2013-02-11 20:42:00,
2013-02-11 12:52:00,55.0,29.0,-100.00,WNW,302,10.0,15.0,37,-99.99,,,0.00,632.000000,,2013-02-11 20:52:00,
2013-02-11 13:02:00,55.0,29.0,-100.00,WNW,302,10.0,15.0,37,-99.99,,,0.00,632.000000,,2013-02-11 21:02:00,
2013-02-11 13:11:00,56.0,28.0,-100.00,WNW,292,10.0,15.0,34,0.00,,,0.00,646.000000,,2013-02-11 21:11:00,
2013-02-11 13:32:00,56.0,28.0,-100.00,WNW,292,10.0,15.0,34,0.00,,,0.00,646.000000,,2013-02-11 21:32:00,
2013-02-11 13:42:00,56.0,28.0,-100.00,WNW,292,10.0,15.0,34,0.00,,,0.00,646.000000,,2013-02-11 21:42:00,
2013-02-11 13:52:00,56.0,28.0,-100.00,WNW,292,10.0,15.0,34,0.00,,,0.00,646.000000,,2013-02-11 21:52:00,
2013-02-11 14:01:00,56.0,28.0,-100.00,WNW,292,10.0,15.0,34,0.00,,,0.00,646.000000,,2013-02-11 22:01:00,
2013-02-11 14:11:00,56.0,26.0,-100.00,WNW,287,11.0,18.0,31,0.00,,,0.00,599.000000,,2013-02-11 22:11:00,
2013-02-11 14:32:00,56.0,26.0,-100.00,WNW,287,11.0,18.0,31,0.00,,,0.00,599.000000,,2013-02-11 22:32:00,
2013-02-11 14:42:00,56.0,26.0,-100.00,WNW,287,11.0,18.0,31,0.00,,,0.00,599.000000,,2013-02-11 22:42:00,
2013-02-11 14:52:00,56.0,26.0,-100.00,WNW,287,11.0,18.0,31,0.00,,,0.00,599.000000,,2013-02-11 22:52:00,
2013-02-11 15:01:00,56.0,26.0,-100.00,WNW,287,11.0,18.0,31,0.00,,,0.00,599.000000,,2013-02-11 23:01:00,
2013-02-11 15:11:00,57.0,26.0,-100.00,WNW,285,11.0,17.0,30,0.00,,,0.00,497.000000,,2013-02-11 23:11:00,
2013-02-11 15:32:00,57.0,26.0,-100.00,WNW,285,11.0,17.0,30,0.00,,,0.00,497.000000,,2013-02-11 23:32:00,
2013-02-11 15:42:00,57.0,26.0,-100.00,WNW,285,11.0,17.0,30,0.00,,,0.00,497.000000,,2013-02-11 23:42:00,
2013-02-11 15:52:00,57.0,26.0,-100.00,WNW,285,11.0,17.0,30,0.00,,,0.00,497.000000,,2013-02-11 23:52:00,
2013-02-11 16:01:00,57.0,26.0,-100.00,WNW,285,11.0,17.0,30,0.00,,,0.00,497.000000,,2013-02-12 00:01:00,
2013-02-11 16:32:00,57.0,19.0,-100.00,NW,326,6.0,18.0,22,0.00,,,0.00,297.000000,,2013-02-12 00:32:00,
2013-02-11 16:42:00,57.0,19.0,-100.00,NW,326,6.0,18.0,22,0.00,,,0.00,297.000000,,2013-02-12 00:42:00,
2013-02-11 16:52:00,57.0,19.0,-100.00,NW,326,6.0,18.0,22,0.00,,,0.00,297.000000,,2013-02-12 00:52:00,
2013-02-11 17:01:00,57.0,19.0,-100.00,NW,326,6.0,18.0,22,0.00,,,0.00,297.000000,,2013-02-12 01:01:00,
2013-02-11 17:11:00,53.0,29.0,-100.00,WNW,302,8.0,17.0,39,0.00,,,-99.99,161.000000,,2013-02-12 01:11:00,
2013-02-11 17:42:00,53.0,29.0,-100.00,WNW,302,8.0,17.0,39,0.00,,,-99.99,161.000000,,2013-02-12 01:42:00,
2013-02-11 17:52:00,53.0,29.0,-100.00,WNW,302,8.0,17.0,39,0.00,,,-99.99,161.000000,,2013-02-12 01:52:00,
2013-02-11 18:01:00,53.0,29.0,-100.00,WNW,302,8.0,17.0,39,0.00,,,-99.99,161.000000,,2013-02-12 02:01:00,
2013-02-11 18:11:00,47.0,27.0,-100.00,NNW,341,2.0,11.0,46,0.00,,,0.00,17.000000,,2013-02-12 02:11:00,
2013-02-11 18:32:00,47.0,27.0,-100.00,NNW,341,2.0,11.0,46,0.00,,,0.00,17.000000,,2013-02-12 02:32:00,
2013-02-11 18:42:00,47.0,27.0,-100.00,NNW,341,2.0,11.0,46,0.00,,,0.00,17.000000,,2013-02-12 02:42:00,
2013-02-11 18:52:00,47.0,27.0,-100.00,NNW,341,2.0,11.0,46,0.00,,,0.00,17.000000,,2013-02-12 02:52:00,
2013-02-11 19:02:00,47.0,27.0,-100.00,NNW,341,2.0,11.0,46,0.00,,,0.00,17.000000,,2013-02-12 03:02:00,
2013-02-11 19:11:00,44.0,28.0,-100.00,NE,47,4.0,9.0,52,0.00,,,0.00,0.000000,,2013-02-12 03:11:00,
2013-02-11 19:32:00,44.0,28.0,-100.00,NE,47,4.0,9.0,52,0.00,,,0.00,0.000000,,2013-02-12 03:32:00,
2013-02-11 19:42:00,44.0,28.0,-100.00,NE,47,4.0,9.0,52,0.00,,,0.00,0.000000,,2013-02-12 03:42:00,
2013-02-11 19:52:00,44.0,28.0,-100.00,NE,47,4.0,9.0,52,0.00,,,0.00,0.000000,,2013-02-12 03:52:00,
2013-02-11 20:01:00,44.0,28.0,-100.00,NE,47,4.0,9.0,52,0.00,,,0.00,0.000000,,2013-02-12 04:01:00,
2013-02-11 20:11:00,42.0,27.0,-100.00,ENE,63,7.0,10.0,56,0.00,,,0.00,0.000000,,2013-02-12 04:11:00,
2013-02-11 20:32:00,42.0,27.0,-100.00,ENE,63,7.0,10.0,56,0.00,,,0.00,0.000000,,2013-02-12 04:32:00,
2013-02-11 20:42:00,42.0,27.0,-100.00,ENE,63,7.0,10.0,56,0.00,,,0.00,0.000000,,2013-02-12 04:42:00,
2013-02-11 20:52:00,42.0,27.0,-100.00,ENE,63,7.0,10.0,56,0.00,,,0.00,0.000000,,2013-02-12 04:52:00,
2013-02-11 21:01:00,42.0,27.0,-100.00,ENE,63,7.0,10.0,56,0.00,,,0.00,0.000000,,2013-02-12 05:01:00,
2013-02-11 21:11:00,39.0,27.0,-100.00,East,84,5.0,7.0,62,0.00,,,0.00,0.000000,,2013-02-12 05:11:00,
2013-02-11 21:42:00,39.0,27.0,-100.00,East,84,5.0,7.0,62,0.00,,,0.00,0.000000,,2013-02-12 05:42:00,
2013-02-11 21:52:00,39.0,27.0,-100.00,East,84,5.0,7.0,62,0.00,,,0.00,0.000000,,2013-02-12 05:52:00,
2013-02-11 22:01:00,39.0,27.0,-100.00,East,84,5.0,7.0,62,0.00,,,0.00,0.000000,,2013-02-12 06:01:00,
2013-02-11 22:11:00,39.0,27.0,-100.00,ESE,111,4.0,8.0,63,0.00,,,0.00,0.000000,,2013-02-12 06:11:00,
2013-02-11 22:32:00,39.0,27.0,-100.00,ESE,111,4.0,8.0,63,0.00,,,0.00,0.000000,,2013-02-12 06:32:00,
2013-02-11 22:42:00,39.0,27.0,-100.00,ESE,111,4.0,8.0,63,0.00,,,0.00,0.000000,,2013-02-12 06:42:00,
2013-02-11 22:52:00,39.0,27.0,-100.00,ESE,111,4.0,8.0,63,0.00,,,0.00,0.000000,,2013-02-12 06:52:00,
2013-02-11 23:01:00,39.0,27.0,-100.00,ESE,111,4.0,8.0,63,0.00,,,0.00,0.000000,,2013-02-12 07:01:00,
2013-02-11 23:11:00,39.0,26.0,-100.00,ESE,105,6.0,9.0,60,0.00,,,0.00,0.000000,,2013-02-12 07:11:00,
2013-02-11 23:42:00,39.0,26.0,-100.00,ESE,105,6.0,9.0,60,0.00,,,0.00,0.000000,,2013-02-12 07:42:00,
2013-02-11 23:52:00,39.0,26.0,-100.00,ESE,105,6.0,9.0,60,0.00,,,0.00,0.000000,,2013-02-12 07:52:00,